| time (UTC) | temp C | wind direction | speed KPH | gust KPH | rain 1hr cm | rain 24hr cm | rain mn cm | humidity % | barometer mb |
| 20260504141023 | 16 | 293 | 6.4 | 17.7 | 0.00 | 0.00 | 0.00 | 36 | 1011.1 |
| 20260504140524 | 15 | 296 | 3.2 | 17.7 | 0.00 | 0.00 | 0.00 | 38 | 1011.1 |
| 20260504130525 | 12 | 336 | 3.2 | 12.9 | 0.00 | 0.00 | 0.00 | 47 | 1011.6 |
| 20260504120108 | 11 | 107 | 3.2 | 12.9 | 0.00 | 0.00 | 0.00 | 49 | 1012.1 |
| 20260504110527 | 8 | 311 | 1.6 | 3.2 | 0.00 | 0.00 | 0.00 | 55 | 1012.0 |
| 20260504100525 | 5 | 325 | 0.0 | 3.2 | 0.00 | 0.00 | 0.00 | 69 | 1011.7 |
| 20260504081536 | 2 | 26 | 0.0 | 3.2 | 0.00 | 0.00 | 0.00 | 80 | 1011.4 |
| 20260504081028 | 2 | 336 | 0.0 | 3.2 | 0.00 | 0.00 | 0.00 | 81 | 1011.4 |
| 20260504080524 | 2 | 0 | 0.0 | 3.2 | 0.00 | 0.00 | 0.00 | 81 | 1011.3 |
| 20260504050525 | 3 | 0 | 0.0 | 1.6 | 0.00 | 0.00 | 0.00 | 79 | 1010.9 |
| 20260504050108 | 3 | 0 | 0.0 | 1.6 | 0.00 | 0.00 | 0.00 | 78 | 1011.0 |
| 20260504045524 | 3 | 0 | 0.0 | 3.2 | 0.00 | 0.00 | 0.00 | 78 | 1011.0 |
| 20260504045023 | 3 | 0 | 0.0 | 3.2 | 0.00 | 0.00 | 0.00 | 78 | 1011.0 |
| 20260504044542 | 3 | 152 | 0.0 | 3.2 | 0.00 | 0.00 | 0.00 | 77 | 1011.0 |
| 20260504044024 | 3 | 0 | 0.0 | 3.2 | 0.00 | 0.00 | 0.00 | 77 | 1011.1 |
| 20260504043529 | 3 | 155 | 0.0 | 3.2 | 0.00 | 0.00 | 0.00 | 77 | 1011.1 |
| 20260504043038 | 3 | 0 | 0.0 | 3.2 | 0.00 | 0.00 | 0.00 | 76 | 1011.1 |
| 20260504042525 | 3 | 0 | 0.0 | 3.2 | 0.00 | 0.00 | 0.00 | 74 | 1011.1 |
| 20260504042024 | 3 | 146 | 0.0 | 3.2 | 0.00 | 0.00 | 0.00 | 75 | 1011.0 |
| 20260504041546 | 3 | 0 | 0.0 | 3.2 | 0.00 | 0.00 | 0.00 | 75 | 1010.9 |
| 20260504041025 | 4 | 0 | 0.0 | 3.2 | 0.00 | 0.00 | 0.00 | 74 | 1010.9 |
| 20260504040525 | 4 | 0 | 0.0 | 3.2 | 0.00 | 0.00 | 0.00 | 72 | 1010.9 |
| 20260504040044 | 4 | 0 | 0.0 | 3.2 | 0.00 | 0.00 | 0.00 | 72 | 1011.0 |
| 20260504035525 | 4 | 146 | 0.0 | 3.2 | 0.00 | 0.00 | 0.00 | 72 | 1010.9 |
| 20260504035025 | 4 | 0 | 0.0 | 3.2 | 0.00 | 0.00 | 0.00 | 71 | 1010.9 |
| 20260504034548 | 4 | 0 | 0.0 | 3.2 | 0.00 | 0.00 | 0.00 | 71 | 1011.0 |
| 20260504034030 | 5 | 0 | 0.0 | 3.2 | 0.00 | 0.00 | 0.00 | 69 | 1010.9 |
| 20260504033534 | 5 | 0 | 0.0 | 3.2 | 0.00 | 0.00 | 0.00 | 66 | 1010.8 |
| 20260504033039 | 5 | 146 | 0.0 | 3.2 | 0.00 | 0.00 | 0.00 | 69 | 1010.9 |
| 20260504032525 | 5 | 0 | 0.0 | 3.2 | 0.00 | 0.00 | 0.00 | 69 | 1010.8 |
| 20260504032025 | 5 | 0 | 0.0 | 1.6 | 0.00 | 0.00 | 0.00 | 68 | 1010.8 |
| 20260504031545 | 5 | 0 | 0.0 | 3.2 | 0.00 | 0.00 | 0.00 | 68 | 1010.8 |
| 20260504031024 | 5 | 0 | 0.0 | 3.2 | 0.00 | 0.00 | 0.00 | 67 | 1010.8 |
| 20260504030526 | 5 | 0 | 0.0 | 1.6 | 0.00 | 0.00 | 0.00 | 67 | 1010.8 |
| 20260504030046 | 5 | 147 | 0.0 | 3.2 | 0.00 | 0.00 | 0.00 | 66 | 1010.8 |
| 20260504025530 | 5 | 0 | 0.0 | 3.2 | 0.00 | 0.00 | 0.00 | 64 | 1010.7 |
| 20260504025024 | 5 | 0 | 0.0 | 3.2 | 0.00 | 0.00 | 0.00 | 65 | 1010.8 |
| 20260504024543 | 6 | 0 | 0.0 | 3.2 | 0.00 | 0.00 | 0.00 | 63 | 1010.7 |
| 20260504024029 | 6 | 0 | 0.0 | 1.6 | 0.00 | 0.00 | 0.00 | 63 | 1010.8 |
| 20260504023524 | 6 | 0 | 0.0 | 3.2 | 0.00 | 0.00 | 0.00 | 63 | 1010.9 |
| 20260504023041 | 6 | 0 | 0.0 | 3.2 | 0.00 | 0.00 | 0.00 | 62 | 1010.8 |
| 20260504022526 | 6 | 0 | 0.0 | 3.2 | 0.00 | 0.00 | 0.00 | 60 | 1010.8 |
| 20260504022024 | 7 | 0 | 0.0 | 3.2 | 0.00 | 0.00 | 0.00 | 60 | 1010.7 |
| 20260504021538 | 7 | 0 | 0.0 | 3.2 | 0.00 | 0.00 | 0.00 | 58 | 1010.8 |
| 20260504021024 | 7 | 0 | 1.6 | 3.2 | 0.00 | 0.00 | 0.00 | 54 | 1010.7 |
| 20260504020524 | 7 | 145 | 0.0 | 3.2 | 0.00 | 0.00 | 0.00 | 56 | 1010.6 |
| 20260504020039 | 7 | 134 | 0.0 | 3.2 | 0.00 | 0.00 | 0.00 | 53 | 1010.7 |
| 20260504015525 | 8 | 152 | 1.6 | 3.2 | 0.00 | 0.00 | 0.00 | 52 | 1010.6 |
| 20260504015025 | 8 | 209 | 0.0 | 3.2 | 0.00 | 0.00 | 0.00 | 54 | 1010.6 |
| 20260504014534 | 8 | 0 | 0.0 | 3.2 | 0.00 | 0.00 | 0.00 | 48 | 1010.6 |
| 20260504014026 | 8 | 0 | 0.0 | 3.2 | 0.00 | 0.00 | 0.00 | 50 | 1010.6 |
| 20260504013525 | 8 | 175 | 0.0 | 3.2 | 0.00 | 0.00 | 0.00 | 49 | 1010.7 |
| 20260504013036 | 8 | 151 | 0.0 | 3.2 | 0.00 | 0.00 | 0.00 | 49 | 1010.6 |
| 20260504012525 | 8 | 0 | 0.0 | 3.2 | 0.00 | 0.00 | 0.00 | 49 | 1010.6 |
| 20260504012025 | 8 | 317 | 0.0 | 3.2 | 0.00 | 0.00 | 0.00 | 48 | 1010.6 |
| 20260504011544 | 8 | 325 | 0.0 | 3.2 | 0.00 | 0.00 | 0.00 | 50 | 1010.4 |
| 20260504011024 | 9 | 291 | 0.0 | 3.2 | 0.00 | 0.00 | 0.00 | 47 | 1010.4 |
| 20260504010528 | 9 | 0 | 0.0 | 3.2 | 0.00 | 0.00 | 0.00 | 49 | 1010.2 |
| 20260504010044 | 9 | 0 | 0.0 | 3.2 | 0.00 | 0.00 | 0.00 | 47 | 1010.3 |
| 20260504005525 | 10 | 309 | 0.0 | 3.2 | 0.00 | 0.00 | 0.00 | 49 | 1010.2 |
| 20260504005025 | 10 | 59 | 0.0 | 3.2 | 0.00 | 0.00 | 0.00 | 46 | 1010.1 |
| 20260504004538 | 10 | 346 | 0.0 | 3.2 | 0.00 | 0.00 | 0.00 | 44 | 1010.0 |
| 20260504004026 | 10 | 0 | 0.0 | 3.2 | 0.00 | 0.00 | 0.00 | 44 | 1009.9 |
| 20260504003525 | 11 | 325 | 0.0 | 3.2 | 0.00 | 0.00 | 0.00 | 43 | 1009.8 |
| 20260504003042 | 11 | 0 | 0.0 | 3.2 | 0.00 | 0.00 | 0.00 | 39 | 1009.8 |
| 20260504002525 | 11 | 325 | 1.6 | 3.2 | 0.00 | 0.00 | 0.00 | 39 | 1009.7 |
| 20260504002024 | 11 | 261 | 0.0 | 3.2 | 0.00 | 0.00 | 0.00 | 37 | 1009.7 |
| 20260504001542 | 11 | 0 | 0.0 | 3.2 | 0.00 | 0.00 | 0.00 | 36 | 1009.6 |
| 20260504001023 | 11 | 253 | 0.0 | 3.2 | 0.00 | 0.00 | 0.00 | 35 | 1009.6 |
| 20260504000524 | 11 | 248 | 0.0 | 4.8 | 0.00 | 0.00 | 0.00 | 33 | 1009.5 |
| 20260504000042 | 11 | 0 | 1.6 | 4.8 | 0.00 | 0.00 | 0.00 | 34 | 1009.4 |
| 20260503235525 | 12 | 0 | 0.0 | 3.2 | 0.00 | 0.00 | 0.00 | 33 | 1009.4 |
| 20260503235025 | 12 | 333 | 0.0 | 3.2 | 0.00 | 0.00 | 0.00 | 34 | 1009.4 |
| 20260503234557 | 12 | 331 | 0.0 | 6.4 | 0.00 | 0.00 | 0.00 | 33 | 1009.3 |
| 20260503234028 | 12 | 318 | 0.0 | 8.0 | 0.00 | 0.00 | 0.00 | 32 | 1009.2 |
| 20260503233525 | 12 | 341 | 1.6 | 8.0 | 0.00 | 0.00 | 0.00 | 31 | 1009.2 |
| 20260503233039 | 12 | 312 | 3.2 | 8.0 | 0.00 | 0.00 | 0.00 | 30 | 1009.1 |
| 20260503232527 | 12 | 296 | 0.0 | 3.2 | 0.00 | 0.00 | 0.00 | 32 | 1009.1 |
| 20260503232024 | 12 | 0 | 0.0 | 3.2 | 0.00 | 0.00 | 0.00 | 32 | 1009.0 |
| 20260503231552 | 12 | 9 | 0.0 | 3.2 | 0.00 | 0.00 | 0.00 | 30 | 1009.0 |
| 20260503231026 | 12 | 315 | 1.6 | 14.5 | 0.00 | 0.00 | 0.00 | 30 | 1008.8 |
| 20260503230526 | 12 | 292 | 3.2 | 14.5 | 0.00 | 0.00 | 0.00 | 30 | 1008.9 |
| 20260503230045 | 12 | 315 | 3.2 | 14.5 | 0.00 | 0.00 | 0.00 | 29 | 1008.9 |
| 20260503225529 | 12 | 310 | 3.2 | 12.9 | 0.00 | 0.00 | 0.00 | 29 | 1008.8 |
| 20260503225027 | 12 | 296 | 4.8 | 11.3 | 0.00 | 0.00 | 0.00 | 29 | 1008.7 |
| 20260503224545 | 12 | 333 | 3.2 | 9.7 | 0.00 | 0.00 | 0.00 | 30 | 1008.7 |
| 20260503224027 | 12 | 305 | 1.6 | 6.4 | 0.00 | 0.00 | 0.00 | 30 | 1008.7 |
| 20260503223525 | 12 | 298 | 1.6 | 8.0 | 0.00 | 0.00 | 0.00 | 30 | 1008.7 |
| 20260503223043 | 12 | 313 | 1.6 | 14.5 | 0.00 | 0.00 | 0.00 | 32 | 1008.7 |
| 20260503222524 | 12 | 278 | 4.8 | 14.5 | 0.00 | 0.00 | 0.00 | 30 | 1008.8 |
| 20260503222025 | 12 | 288 | 3.2 | 12.9 | 0.00 | 0.00 | 0.00 | 30 | 1008.7 |
| 20260503221538 | 13 | 313 | 4.8 | 12.9 | 0.00 | 0.00 | 0.00 | 30 | 1008.7 |
| 20260503221023 | 13 | 352 | 3.2 | 11.3 | 0.00 | 0.00 | 0.00 | 30 | 1008.8 |
| 20260503220526 | 13 | 264 | 1.6 | 8.0 | 0.00 | 0.00 | 0.00 | 31 | 1008.8 |
| 20260503220045 | 13 | 321 | 3.2 | 12.9 | 0.00 | 0.00 | 0.00 | 31 | 1008.5 |
| 20260503215522 | 12 | 311 | 4.8 | 17.7 | 0.00 | 0.00 | 0.00 | 31 | 1008.7 |
| 20260503215025 | 12 | 311 | 4.8 | 17.7 | 0.00 | 0.00 | 0.00 | 31 | 1008.8 |
| 20260503214550 | 12 | 311 | 8.0 | 19.3 | 0.00 | 0.00 | 0.00 | 31 | 1008.8 |
| 20260503214025 | 12 | 304 | 9.7 | 19.3 | 0.00 | 0.00 | 0.00 | 30 | 1008.7 |
| 20260503213524 | 13 | 298 | 4.8 | 14.5 | 0.00 | 0.00 | 0.00 | 35 | 1008.6 |
| 20260503213106 | 13 | 31 | 6.4 | 16.1 | 0.00 | 0.00 | 0.00 | 31 | 1008.6 |
| 20260503212523 | 13 | 317 | 4.8 | 17.7 | 0.00 | 0.00 | 0.00 | 33 | 1008.7 |
| 20260503212023 | 12 | 317 | 8.0 | 17.7 | 0.00 | 0.00 | 0.00 | 31 | 1008.5 |
| 20260503211603 | 13 | 306 | 4.8 | 16.1 | 0.00 | 0.00 | 0.00 | 30 | 1008.7 |
| 20260503211026 | 13 | 53 | 3.2 | 16.1 | 0.00 | 0.00 | 0.00 | 32 | 1008.6 |
| 20260503210530 | 13 | 22 | 4.8 | 14.5 | 0.00 | 0.00 | 0.00 | 34 | 1008.6 |
| 20260503210038 | 12 | 319 | 3.2 | 8.0 | 0.00 | 0.00 | 0.00 | 35 | 1008.6 |
| 20260503205526 | 12 | 146 | 1.6 | 12.9 | 0.00 | 0.00 | 0.00 | 34 | 1008.6 |
| 20260503205027 | 12 | 49 | 4.8 | 12.9 | 0.00 | 0.00 | 0.00 | 34 | 1008.7 |
| 20260503204558 | 12 | 317 | 4.8 | 8.0 | 0.00 | 0.00 | 0.00 | 32 | 1008.7 |
| 20260503204022 | 12 | 350 | 3.2 | 22.5 | 0.00 | 0.00 | 0.00 | 34 | 1008.6 |
| 20260503203525 | 12 | 67 | 6.4 | 22.5 | 0.00 | 0.00 | 0.00 | 34 | 1008.6 |
| 20260503203042 | 12 | 306 | 4.8 | 16.1 | 0.00 | 0.00 | 0.00 | 34 | 1008.5 |
| 20260503202523 | 12 | 93 | 3.2 | 16.1 | 0.00 | 0.00 | 0.00 | 34 | 1008.6 |
| 20260503202023 | 12 | 9 | 4.8 | 16.1 | 0.00 | 0.00 | 0.00 | 35 | 1008.8 |
| 20260503201542 | 12 | 338 | 4.8 | 14.5 | 0.00 | 0.00 | 0.00 | 35 | 1008.7 |
| 20260503201023 | 12 | 315 | 3.2 | 19.3 | 0.00 | 0.00 | 0.00 | 36 | 1008.7 |
| 20260503200523 | 12 | 299 | 4.8 | 19.3 | 0.00 | 0.00 | 0.00 | 35 | 1008.7 |
| 20260503200041 | 12 | 313 | 6.4 | 12.9 | 0.00 | 0.00 | 0.00 | 36 | 1008.8 |
| 20260503195523 | 11 | 82 | 3.2 | 22.5 | 0.00 | 0.00 | 0.00 | 38 | 1008.9 |
| 20260503195026 | 11 | 44 | 6.4 | 22.5 | 0.00 | 0.00 | 0.00 | 38 | 1008.9 |
| 20260503194540 | 11 | 311 | 11.3 | 22.5 | 0.00 | 0.00 | 0.00 | 36 | 1009.0 |
| 20260503194026 | 11 | 296 | 6.4 | 17.7 | 0.00 | 0.00 | 0.00 | 36 | 1009.1 |
| 20260503193524 | 11 | 180 | 8.0 | 17.7 | 0.00 | 0.00 | 0.00 | 36 | 1009.1 |
| 20260503193042 | 11 | 311 | 4.8 | 16.1 | 0.00 | 0.00 | 0.00 | 36 | 1009.2 |
| 20260503192523 | 11 | 211 | 4.8 | 17.7 | 0.00 | 0.00 | 0.00 | 39 | 1009.1 |
| 20260503192024 | 11 | 125 | 8.0 | 22.5 | 0.00 | 0.00 | 0.00 | 37 | 1009.1 |
| 20260503191557 | 11 | 277 | 4.8 | 22.5 | 0.00 | 0.00 | 0.00 | 38 | 1009.3 |
| 20260503191025 | 11 | 319 | 8.0 | 19.3 | 0.00 | 0.00 | 0.00 | 36 | 1009.2 |
| 20260503190525 | 11 | 301 | 6.4 | 16.1 | 0.00 | 0.00 | 0.00 | 38 | 1009.3 |
| 20260503190044 | 10 | 109 | 6.4 | 19.3 | 0.00 | 0.00 | 0.00 | 37 | 1009.2 |
| 20260503185526 | 11 | 343 | 1.6 | 19.3 | 0.00 | 0.00 | 0.00 | 37 | 1009.3 |
| 20260503185025 | 11 | 51 | 4.8 | 19.3 | 0.00 | 0.00 | 0.00 | 37 | 1009.3 |
| 20260503184553 | 11 | 277 | 4.8 | 22.5 | 0.00 | 0.00 | 0.00 | 38 | 1009.3 |
| 20260503184026 | 11 | 175 | 6.4 | 22.5 | 0.00 | 0.00 | 0.00 | 36 | 1009.5 |
| 20260503183524 | 11 | 205 | 8.0 | 22.5 | 0.00 | 0.00 | 0.00 | 36 | 1009.3 |
| 20260503183043 | 11 | 317 | 4.8 | 24.1 | 0.00 | 0.00 | 0.00 | 38 | 1009.5 |
| 20260503182524 | 10 | 360 | 8.0 | 24.1 | 0.00 | 0.00 | 0.00 | 37 | 1009.5 |
| 20260503182025 | 10 | 302 | 6.4 | 22.5 | 0.00 | 0.00 | 0.00 | 37 | 1009.5 |
| 20260503181547 | 10 | 259 | 3.2 | 12.9 | 0.00 | 0.00 | 0.00 | 39 | 1009.5 |
| 20260503181025 | 10 | 327 | 4.8 | 14.5 | 0.00 | 0.00 | 0.00 | 39 | 1009.3 |
| 20260503180525 | 10 | 129 | 4.8 | 14.5 | 0.00 | 0.00 | 0.00 | 41 | 1009.3 |
| 20260503180045 | 10 | 332 | 6.4 | 19.3 | 0.00 | 0.00 | 0.00 | 38 | 1009.4 |
| 20260503175525 | 10 | 348 | 4.8 | 19.3 | 0.00 | 0.00 | 0.00 | 40 | 1009.4 |
| 20260503175024 | 10 | 298 | 6.4 | 16.1 | 0.00 | 0.00 | 0.00 | 40 | 1009.4 |
| 20260503174555 | 10 | 287 | 6.4 | 16.1 | 0.00 | 0.00 | 0.00 | 38 | 1009.4 |
| 20260503174024 | 10 | 144 | 3.2 | 17.7 | 0.00 | 0.00 | 0.00 | 38 | 1009.3 |
| 20260503173525 | 10 | 77 | 6.4 | 17.7 | 0.00 | 0.00 | 0.00 | 40 | 1009.4 |
| 20260503173040 | 10 | 329 | 6.4 | 16.1 | 0.00 | 0.00 | 0.00 | 37 | 1009.4 |
| 20260503172523 | 10 | 9 | 4.8 | 19.3 | 0.00 | 0.00 | 0.00 | 38 | 1009.4 |
| 20260503172024 | 10 | 304 | 6.4 | 19.3 | 0.00 | 0.00 | 0.00 | 39 | 1009.5 |
| 20260503171547 | 10 | 304 | 4.8 | 16.1 | 0.00 | 0.00 | 0.00 | 36 | 1009.5 |
| 20260503171029 | 10 | 309 | 4.8 | 16.1 | 0.00 | 0.00 | 0.00 | 38 | 1009.4 |
| 20260503170525 | 10 | 314 | 6.4 | 16.1 | 0.00 | 0.00 | 0.00 | 38 | 1009.4 |
| 20260503150530 | 7 | 304 | 4.8 | 20.9 | 0.00 | 0.00 | 0.00 | 51 | 1009.8 |